When you browse on this site, cookies collect data to enhance your experience and personalize the content and advertising you see.
Visit our Privacy Policy to learn more. By continuing to use the site, you agree to this use of cookies and data.
  • In Sweden
  • List of Countries
  • For 7 days
  • Water Temperature
  • Satellite Maps
  • Weather Map
  • Weather Widgets
  • user-avatar
    Login

    Hourly Weather Orlovka

    Today, 19 June, Wednesday

    Time Temperature Precipitation Wind Pressure Humidity
    00:00 +12°C° 0 mm 3 mps 743 mmHg 70%
    01:00 +11°C° 0 mm 3 mps 743 mmHg 70%
    02:00 +11°C° 0 mm 3 mps 743 mmHg 70%
    03:00 +11°C° 0 mm 3 mps 744 mmHg 71%
    04:00 +11°C° 0 mm 3 mps 744 mmHg 71%
    05:00 +12°C° 0 mm 3 mps 744 mmHg 72%
    06:00 +13°C° 0 mm 4 mps 745 mmHg 67%
    07:00 +14°C° 0 mm 4 mps 745 mmHg 63%
    08:00 +15°C° 0 mm 4 mps 745 mmHg 58%
    09:00 +15°C° 0.1 mm 4 mps 745 mmHg 60%
    10:00 +15°C° 0.1 mm 4 mps 745 mmHg 62%
    11:00 +16°C° 0.1 mm 3 mps 745 mmHg 64%
    12:00 +18°C° 0 mm 3 mps 745 mmHg 57%
    13:00 +20°C° 0 mm 2 mps 744 mmHg 50%
    14:00 +21°C° 0 mm 2 mps 744 mmHg 43%
    15:00 +23°C° 0 mm 2 mps 744 mmHg 42%
    16:00 +23°C° 0 mm 2 mps 744 mmHg 42%
    17:00 +23°C° 0 mm 2 mps 744 mmHg 41%
    18:00 +21°C° 0 mm 2 mps 745 mmHg 48%
    19:00 +19°C° 0 mm 3 mps 745 mmHg 54%
    20:00 +18°C° 0 mm 3 mps 745 mmHg 61%
    21:00 +17°C° 0 mm 2 mps 745 mmHg 63%
    22:00 +16°C° 0 mm 2 mps 746 mmHg 65%
    23:00 +15°C° 0 mm 1 mps 746 mmHg 68%

    Tomorrow, 20 June, Thursday

    Time Temperature Precipitation Wind Pressure Humidity
    00:00 +15°C° 0 mm 1 mps 746 mmHg 70%
    01:00 +14°C° 0 mm 2 mps 746 mmHg 72%
    02:00 +14°C° 0 mm 2 mps 747 mmHg 74%
    03:00 +14°C° 0 mm 2 mps 747 mmHg 75%
    04:00 +14°C° 0 mm 2 mps 747 mmHg 76%
    05:00 +15°C° 0 mm 2 mps 748 mmHg 78%
    06:00 +16°C° 0 mm 3 mps 748 mmHg 72%
    07:00 +17°C° 0 mm 3 mps 748 mmHg 66%
    08:00 +19°C° 0 mm 3 mps 749 mmHg 60%
    09:00 +20°C° 0 mm 2 mps 749 mmHg 55%
    10:00 +21°C° 0 mm 2 mps 749 mmHg 50%
    11:00 +23°C° 0 mm 2 mps 749 mmHg 45%
    12:00 +23°C° 0 mm 2 mps 749 mmHg 42%
    13:00 +24°C° 0 mm 2 mps 749 mmHg 39%
    14:00 +25°C° 0 mm 2 mps 749 mmHg 36%
    15:00 +25°C° 0 mm 2 mps 749 mmHg 36%
    16:00 +25°C° 0 mm 2 mps 749 mmHg 35%
    17:00 +25°C° 0 mm 2 mps 749 mmHg 34%
    18:00 +23°C° 0 mm 2 mps 749 mmHg 40%
    19:00 +21°C° 0 mm 2 mps 749 mmHg 45%
    20:00 +20°C° 0 mm 2 mps 749 mmHg 50%
    21:00 +19°C° 0 mm 2 mps 749 mmHg 52%
    22:00 +18°C° 0 mm 2 mps 749 mmHg 55%
    23:00 +18°C° 0 mm 2 mps 749 mmHg 57%

    Day after tomorrow, 21 June, Friday

    Time Temperature Precipitation Wind Pressure Humidity
    00:00 +17°C° 0 mm 2 mps 749 mmHg 59%
    01:00 +17°C° 0 mm 2 mps 749 mmHg 62%
    02:00 +16°C° 0 mm 2 mps 749 mmHg 64%
    03:00 +16°C° 0 mm 2 mps 749 mmHg 65%
    04:00 +17°C° 0 mm 2 mps 749 mmHg 66%
    05:00 +17°C° 0 mm 2 mps 749 mmHg 66%
    06:00 +18°C° 0 mm 2 mps 749 mmHg 60%
    07:00 +20°C° 0 mm 2 mps 749 mmHg 54%
    08:00 +23°C° 0 mm 2 mps 749 mmHg 47%
    09:00 +24°C° 0 mm 2 mps 749 mmHg 44%
    10:00 +25°C° 0 mm 2 mps 748 mmHg 40%
    11:00 +26°C° 0 mm 2 mps 748 mmHg 36%
    12:00 +26°C° 0 mm 2 mps 748 mmHg 34%
    13:00 +27°C° 0 mm 2 mps 747 mmHg 33%
    14:00 +27°C° 0 mm 2 mps 747 mmHg 31%
    15:00 +28°C° 0 mm 2 mps 746 mmHg 31%
    16:00 +28°C° 0 mm 1 mps 746 mmHg 30%
    17:00 +28°C° 0 mm 1 mps 746 mmHg 29%
    18:00 +26°C° 0 mm 2 mps 746 mmHg 35%
    19:00 +25°C° 0 mm 2 mps 745 mmHg 40%
    20:00 +22°C° 0 mm 3 mps 745 mmHg 45%
    21:00 +21°C° 0 mm 3 mps 745 mmHg 48%
    22:00 +21°C° 0 mm 3 mps 745 mmHg 50%
    23:00 +20°C° 0 mm 3 mps 745 mmHg 53%

    22 June, Saturday

    Time Temperature Precipitation Wind Pressure Humidity
    00:00 +19°C° 0 mm 3 mps 744 mmHg 55%
    01:00 +19°C° 0 mm 3 mps 744 mmHg 57%
    02:00 +18°C° 0 mm 3 mps 743 mmHg 58%
    03:00 +19°C° 0 mm 3 mps 743 mmHg 59%
    04:00 +19°C° 0 mm 3 mps 743 mmHg 60%
    05:00 +19°C° 0 mm 2 mps 743 mmHg 61%
    06:00 +21°C° 0 mm 2 mps 743 mmHg 57%
    07:00 +24°C° 0 mm 3 mps 743 mmHg 52%
    08:00 +26°C° 0 mm 3 mps 743 mmHg 47%
    09:00 +27°C° 0 mm 4 mps 743 mmHg 43%
    10:00 +28°C° 0 mm 4 mps 743 mmHg 39%
    11:00 +29°C° 0 mm 4 mps 743 mmHg 35%
    12:00 +28°C° 0 mm 5 mps 743 mmHg 39%
    13:00 +28°C° 0 mm 6 mps 743 mmHg 42%
    14:00 +27°C° 0 mm 7 mps 743 mmHg 46%
    15:00 +27°C° 0.1 mm 7 mps 743 mmHg 45%
    16:00 +26°C° 0.1 mm 7 mps 743 mmHg 45%
    17:00 +24°C° 0.1 mm 7 mps 743 mmHg 44%
    18:00 +23°C° 0 mm 7 mps 743 mmHg 48%
    19:00 +21°C° 0 mm 6 mps 744 mmHg 51%
    20:00 +20°C° 0 mm 6 mps 744 mmHg 55%
    21:00 +17°C° 0 mm 6 mps 745 mmHg 61%
    22:00 +16°C° 0 mm 6 mps 745 mmHg 68%
    23:00 +15°C° 0 mm 6 mps 746 mmHg 75%

    23 June, Sunday

    Time Temperature Precipitation Wind Pressure Humidity
    00:00 +14°C° 0 mm 6 mps 746 mmHg 78%
    01:00 +13°C° 0 mm 6 mps 746 mmHg 81%
    02:00 +11°C° 0 mm 6 mps 746 mmHg 84%
    03:00 +11°C° 0 mm 6 mps 746 mmHg 82%
    04:00 +11°C° 0 mm 6 mps 746 mmHg 80%
    05:00 +11°C° 0 mm 6 mps 747 mmHg 79%
    06:00 +12°C° 0 mm 7 mps 747 mmHg 70%
    07:00 +14°C° 0 mm 7 mps 747 mmHg 62%
    08:00 +15°C° 0 mm 7 mps 748 mmHg 53%
    09:00 +15°C° 0.1 mm 7 mps 748 mmHg 49%
    10:00 +16°C° 0.1 mm 7 mps 748 mmHg 44%
    11:00 +17°C° 0.1 mm 8 mps 748 mmHg 40%
    12:00 +17°C° 0.3 mm 8 mps 748 mmHg 42%
    13:00 +17°C° 0.3 mm 8 mps 748 mmHg 45%
    14:00 +17°C° 0.3 mm 8 mps 748 mmHg 47%
    15:00 +17°C° 0.3 mm 7 mps 748 mmHg 49%
    16:00 +17°C° 0.3 mm 7 mps 748 mmHg 51%
    17:00 +16°C° 0.3 mm 7 mps 749 mmHg 52%
    18:00 +15°C° 0 mm 5 mps 749 mmHg 57%
    19:00 +14°C° 0 mm 3 mps 749 mmHg 62%
    20:00 +15°C° 0 mm 2 mps 749 mmHg 67%
    21:00 +14°C° 0 mm 1 mps 749 mmHg 70%
    22:00 +13°C° 0 mm 1 mps 749 mmHg 73%
    23:00 +12°C° 0 mm 1 mps 749 mmHg 75%

    24 June, Monday

    Time Temperature Precipitation Wind Pressure Humidity
    00:00 +12°C° 0 mm 1 mps 749 mmHg 75%
    01:00 +12°C° 0 mm 1 mps 749 mmHg 75%
    02:00 +12°C° 0 mm 2 mps 749 mmHg 75%
    03:00 +12°C° 0 mm 2 mps 749 mmHg 74%
    04:00 +13°C° 0 mm 2 mps 749 mmHg 73%
    05:00 +13°C° 0 mm 2 mps 749 mmHg 72%
    06:00 +14°C° 0 mm 2 mps 749 mmHg 64%
    07:00 +16°C° 0 mm 2 mps 749 mmHg 55%
    08:00 +18°C° 0 mm 2 mps 749 mmHg 47%
    09:00 +19°C° 0 mm 2 mps 749 mmHg 44%
    10:00 +20°C° 0 mm 2 mps 748 mmHg 40%
    11:00 +21°C° 0 mm 2 mps 748 mmHg 36%
    12:00 +23°C° 0 mm 2 mps 748 mmHg 34%
    13:00 +23°C° 0 mm 2 mps 748 mmHg 32%
    14:00 +24°C° 0 mm 2 mps 747 mmHg 30%
    15:00 +25°C° 0 mm 2 mps 747 mmHg 29%
    16:00 +25°C° 0 mm 2 mps 747 mmHg 29%
    17:00 +25°C° 0 mm 2 mps 746 mmHg 28%
    18:00 +24°C° 0 mm 2 mps 746 mmHg 33%
    19:00 +22°C° 0 mm 1 mps 746 mmHg 39%
    20:00 +21°C° 0 mm 1 mps 746 mmHg 44%
    21:00 +20°C° 0 mm 1 mps 746 mmHg 45%
    22:00 +18°C° 0 mm 2 mps 746 mmHg 45%
    23:00 +18°C° 0 mm 2 mps 746 mmHg 46%
    Show more